Couvert avec pluie légère
Couvert avec pluie légère
Couvert avec pluie légère
Couvert avec pluie légère
Couvert avec pluie légère
Couvert avec pluie légère
Couvert avec pluie légère
(°C)
16°
16°
16°
16°
17°
17°
17°
17°
17°
17°
17°
17°
18°
18°
(°C)
13°
14°
14°
14°
15°
15°
16°
NE
NE
NE
NNE
NNE
NNE
NNE
(km/h)
17-29
15-26
15-26
14-24
13-22
13-20
12-20
(mm)
0.5
0.6
0.9
0.3
0.8
1.3
0.1
(%)
26
34
34
43
52
52
35

Élévation du soleil

/ 5.4°
sun-icon
UV 3
07:23
18:18
Gibbeuse décroissante (197°)
19:07
08:58

METAR pour Buenos Aires (SABE)

Heure Conditions Température/
Point de rosée
Vent Visibilité Météo Nuages Pression Changement Brut
VFR 16°C / 11°C 50º 9kt 9700m in the Vicinity Showers Clear 1017 Temporary: Visibility 7000. Light Rain . SABE 251012Z 05009KT 9999 VCSH NSC 16/11 Q1017 TEMPO 7000 -RA
VFR 16°C / 12°C 50º 12kt 9700m - Clouds and Visibility OK 1016 Temporary: Visibility 7000. Light Rain . SABE 251000Z 05012KT CAVOK 16/12 Q1016 TEMPO 7000 -RA
VFR 16°C / 11°C 60º 11kt 9700m - Clouds and Visibility OK 1016 Temporary: Visibility 7000. Light Rain . SABE 250900Z 06011KT CAVOK 16/11 Q1016 TEMPO 7000 -RA
VFR 16°C / 12°C 60º 12kt 9000m Light Rain 1.00mm precipitation Clear 1016 Temporary: Visibility 7000. Showers Rain . SABE 250800Z 06012KT 9000 -RA NSC 16/12 Q1016 TEMPO 7000 SHRA
IFR 16°C / 12°C 50º variable 020º to 080º 11kt 4500m Light Rain 1.00mm precipitation Few Clouds 1600ft
Overcast 7000ft
1017 Temporary: Visibility 7000. Showers Rain . SABE 250723Z 05011KT 020V080 4500 -RA FEW016 OVC070 16/12 Q1017 TEMPO 7000 SHRA
VFR 16°C / 11°C 60º 11kt 9700m - Few Clouds 1600ft 1017 Temporary: Visibility 7000. Showers Rain . SABE 250700Z 06011KT 9999 FEW016 16/11 Q1017 TEMPO 7000 SHRA
VFR 16°C / 12°C 60º 11kt 9700m - Clouds and Visibility OK 1017 No Significant change SABE 250600Z 06011KT CAVOK 16/12 Q1017 NOSIG
VFR 16°C / 11°C 60º 11kt 9700m - Clouds and Visibility OK 1017 No Significant change SABE 250500Z 06011KT CAVOK 16/11 Q1017 NOSIG
VFR 16°C / 11°C 70º 11kt 9700m - Clouds and Visibility OK 1018 No Significant change SABE 250400Z 07011KT CAVOK 16/11 Q1018 NOSIG
VFR 16°C / 10°C 70º 9kt 9700m - Clouds and Visibility OK 1018 No Significant change SABE 250300Z 07009KT CAVOK 16/10 Q1018 NOSIG
VFR 17°C / 8°C 80º 10kt 9700m - Clouds and Visibility OK 1018 No Significant change SABE 250200Z 08010KT CAVOK 17/08 Q1018 NOSIG
VFR 17°C / 9°C 70º 9kt 9700m - Clouds and Visibility OK 1018 No Significant change SABE 250100Z 07009KT CAVOK 17/09 Q1018 NOSIG
VFR 17°C / 9°C 80º 8kt 9700m - Clouds and Visibility OK 1018 No Significant change SABE 250000Z 08008KT CAVOK 17/09 Q1018 NOSIG
VFR 17°C / 9°C 80º 8kt 9700m - Clouds and Visibility OK 1018 No Significant change SABE 242300Z 08008KT CAVOK 17/09 Q1018 NOSIG
VFR 17°C / 8°C 70º 7kt 9700m - Clouds and Visibility OK 1018 No Significant change SABE 242200Z 07007KT CAVOK 17/08 Q1018 NOSIG
VFR 17°C / 6°C 80º 4kt 9700m - Clouds and Visibility OK 1018 No Significant change SABE 242100Z 08004KT CAVOK 17/06 Q1018 NOSIG
VFR 18°C / 6°C 60º 6kt 9700m - Clouds and Visibility OK 1018 No Significant change SABE 242000Z 06006KT CAVOK 18/06 Q1018 NOSIG
VFR 18°C / 4°C 50º variable 020º to 080º 6kt 9700m - Clouds and Visibility OK 1018 No Significant change SABE 241900Z 05006KT 020V080 CAVOK 18/04 Q1018 NOSIG
VFR 19°C / 4°C 70º 9kt 9700m - Clouds and Visibility OK 1018 No Significant change SABE 241800Z 07009KT CAVOK 19/04 Q1018 NOSIG
VFR 20°C / 1°C 3kt 9700m - Clouds and Visibility OK 1019 No Significant change SABE 241700Z VRB03KT CAVOK 20/01 Q1019 NOSIG
VFR 19°C / 1°C 4kt 9700m - Clouds and Visibility OK 1019 No Significant change SABE 241600Z VRB04KT CAVOK 19/01 Q1019 NOSIG
VFR 18°C / 0°C 180º variable 140º to 210º 7kt 9700m - Clouds and Visibility OK 1020 No Significant change SABE 241500Z 18007KT 140V210 CAVOK 18/00 Q1020 NOSIG
VFR 18°C / 3°C 3kt 9700m - Clouds and Visibility OK 1020 No Significant change SABE 241400Z VRB03KT CAVOK 18/03 Q1020 NOSIG
VFR 16°C / 3°C 190º variable 140º to 240º 5kt 9700m - Clouds and Visibility OK 1020 No Significant change SABE 241300Z 19005KT 140V240 CAVOK 16/03 Q1020 NOSIG

VFR

16°C / 11°C

[Plus]
Vent 50º 9kt
Visibilité 9700m
Météo in the Vicinity Showers
Nuages Clear
Pression 1017
Changement Temporary: Visibility 7000. Light Rain .
Brut SABE 251012Z 05009KT 9999 VCSH NSC 16/11 Q1017 TEMPO 7000 -RA

VFR

16°C / 12°C

[Plus]
Vent 50º 12kt
Visibilité 9700m
Météo -
Nuages Clouds and Visibility OK
Pression 1016
Changement Temporary: Visibility 7000. Light Rain .
Brut SABE 251000Z 05012KT CAVOK 16/12 Q1016 TEMPO 7000 -RA

VFR

16°C / 11°C

[Plus]
Vent 60º 11kt
Visibilité 9700m
Météo -
Nuages Clouds and Visibility OK
Pression 1016
Changement Temporary: Visibility 7000. Light Rain .
Brut SABE 250900Z 06011KT CAVOK 16/11 Q1016 TEMPO 7000 -RA

VFR

16°C / 12°C

[Plus]
Vent 60º 12kt
Visibilité 9000m
Météo Light Rain 1.00mm precipitation
Nuages Clear
Pression 1016
Changement Temporary: Visibility 7000. Showers Rain .
Brut SABE 250800Z 06012KT 9000 -RA NSC 16/12 Q1016 TEMPO 7000 SHRA

IFR

16°C / 12°C

[Plus]
Vent 50º variable 020º to 080º 11kt
Visibilité 4500m
Météo Light Rain 1.00mm precipitation
Nuages Few Clouds 1600ft
Overcast 7000ft
Pression 1017
Changement Temporary: Visibility 7000. Showers Rain .
Brut SABE 250723Z 05011KT 020V080 4500 -RA FEW016 OVC070 16/12 Q1017 TEMPO 7000 SHRA

VFR

16°C / 11°C

[Plus]
Vent 60º 11kt
Visibilité 9700m
Météo -
Nuages Few Clouds 1600ft
Pression 1017
Changement Temporary: Visibility 7000. Showers Rain .
Brut SABE 250700Z 06011KT 9999 FEW016 16/11 Q1017 TEMPO 7000 SHRA

VFR

16°C / 12°C

[Plus]
Vent 60º 11kt
Visibilité 9700m
Météo -
Nuages Clouds and Visibility OK
Pression 1017
Changement No Significant change
Brut SABE 250600Z 06011KT CAVOK 16/12 Q1017 NOSIG

VFR

16°C / 11°C

[Plus]
Vent 60º 11kt
Visibilité 9700m
Météo -
Nuages Clouds and Visibility OK
Pression 1017
Changement No Significant change
Brut SABE 250500Z 06011KT CAVOK 16/11 Q1017 NOSIG

VFR

16°C / 11°C

[Plus]
Vent 70º 11kt
Visibilité 9700m
Météo -
Nuages Clouds and Visibility OK
Pression 1018
Changement No Significant change
Brut SABE 250400Z 07011KT CAVOK 16/11 Q1018 NOSIG

VFR

16°C / 10°C

[Plus]
Vent 70º 9kt
Visibilité 9700m
Météo -
Nuages Clouds and Visibility OK
Pression 1018
Changement No Significant change
Brut SABE 250300Z 07009KT CAVOK 16/10 Q1018 NOSIG

VFR

17°C / 8°C

[Plus]
Vent 80º 10kt
Visibilité 9700m
Météo -
Nuages Clouds and Visibility OK
Pression 1018
Changement No Significant change
Brut SABE 250200Z 08010KT CAVOK 17/08 Q1018 NOSIG

VFR

17°C / 9°C

[Plus]
Vent 70º 9kt
Visibilité 9700m
Météo -
Nuages Clouds and Visibility OK
Pression 1018
Changement No Significant change
Brut SABE 250100Z 07009KT CAVOK 17/09 Q1018 NOSIG

VFR

17°C / 9°C

[Plus]
Vent 80º 8kt
Visibilité 9700m
Météo -
Nuages Clouds and Visibility OK
Pression 1018
Changement No Significant change
Brut SABE 250000Z 08008KT CAVOK 17/09 Q1018 NOSIG

VFR

17°C / 9°C

[Plus]
Vent 80º 8kt
Visibilité 9700m
Météo -
Nuages Clouds and Visibility OK
Pression 1018
Changement No Significant change
Brut SABE 242300Z 08008KT CAVOK 17/09 Q1018 NOSIG

VFR

17°C / 8°C

[Plus]
Vent 70º 7kt
Visibilité 9700m
Météo -
Nuages Clouds and Visibility OK
Pression 1018
Changement No Significant change
Brut SABE 242200Z 07007KT CAVOK 17/08 Q1018 NOSIG

VFR

17°C / 6°C

[Plus]
Vent 80º 4kt
Visibilité 9700m
Météo -
Nuages Clouds and Visibility OK
Pression 1018
Changement No Significant change
Brut SABE 242100Z 08004KT CAVOK 17/06 Q1018 NOSIG

VFR

18°C / 6°C

[Plus]
Vent 60º 6kt
Visibilité 9700m
Météo -
Nuages Clouds and Visibility OK
Pression 1018
Changement No Significant change
Brut SABE 242000Z 06006KT CAVOK 18/06 Q1018 NOSIG

VFR

18°C / 4°C

[Plus]
Vent 50º variable 020º to 080º 6kt
Visibilité 9700m
Météo -
Nuages Clouds and Visibility OK
Pression 1018
Changement No Significant change
Brut SABE 241900Z 05006KT 020V080 CAVOK 18/04 Q1018 NOSIG

VFR

19°C / 4°C

[Plus]
Vent 70º 9kt
Visibilité 9700m
Météo -
Nuages Clouds and Visibility OK
Pression 1018
Changement No Significant change
Brut SABE 241800Z 07009KT CAVOK 19/04 Q1018 NOSIG

VFR

20°C / 1°C

[Plus]
Vent 3kt
Visibilité 9700m
Météo -
Nuages Clouds and Visibility OK
Pression 1019
Changement No Significant change
Brut SABE 241700Z VRB03KT CAVOK 20/01 Q1019 NOSIG

VFR

19°C / 1°C

[Plus]
Vent 4kt
Visibilité 9700m
Météo -
Nuages Clouds and Visibility OK
Pression 1019
Changement No Significant change
Brut SABE 241600Z VRB04KT CAVOK 19/01 Q1019 NOSIG

VFR

18°C / 0°C

[Plus]
Vent 180º variable 140º to 210º 7kt
Visibilité 9700m
Météo -
Nuages Clouds and Visibility OK
Pression 1020
Changement No Significant change
Brut SABE 241500Z 18007KT 140V210 CAVOK 18/00 Q1020 NOSIG

VFR

18°C / 3°C

[Plus]
Vent 3kt
Visibilité 9700m
Météo -
Nuages Clouds and Visibility OK
Pression 1020
Changement No Significant change
Brut SABE 241400Z VRB03KT CAVOK 18/03 Q1020 NOSIG

VFR

16°C / 3°C

[Plus]
Vent 190º variable 140º to 240º 5kt
Visibilité 9700m
Météo -
Nuages Clouds and Visibility OK
Pression 1020
Changement No Significant change
Brut SABE 241300Z 19005KT 140V240 CAVOK 16/03 Q1020 NOSIG

TAF pour Buenos Aires (SABE)

From till


Maximum Temperature 19ºC on . Minimum Temperature 14ºC on .
From till Wind 70º 10kt. Visibility 9700m. Nil Significant Cloud.
Temporarly from till Visibility 8000m. Light Rain . Broken Clouds 4000ft. Overcast 10000ft.

Brut: TAF SABE 250500Z 2506/2606 07010KT CAVOK TX19/2518Z TN14/2509Z TEMPO 2507/2521 8000 -RA BKN040 OVC100

Radar pour Buenos Aires

Bruine
Légère
Modéré
Fort
Très fort
Grêle

Le marqueur est placé sur Buenos Aires. Les croix orange indiquent la foudre. Données fournies par nowcast.de (disponibles aux États-Unis, en Europe et en Australie). Une bruine ou une légère chute de neige peut être invisible pour le radar. L'intensité des précipitations est codée par couleur, allant du turquoise au rouge.

Les images satellites pour Buenos Aires, Argentine

Le marqueur est placé sur Buenos Aires. [Plus]

L'image satellite en temps réel combine la lumière visible pendant la journée et le rayonnement infrarouge pendant la nuit. La nuit, l'image n'est pas sombre car le rayonnement infrarouge permet de détecter les différences de température. Malheureusement, les nuages bas et le brouillard sont difficiles à distinguer des températures au sol et peuvent donc être presque invisibles pendant la nuit. Les images des satellites Météosat pour l'Europe sont mises à jour en temps réel toutes les 5 minutes. Les images GOES-16/GOES-17 (Amérique du Nord et du Sud) et Himawari (Asie) sont mises à jour toutes les 10 minutes.

Les précipitations sont estimées à partir de radars et de satellites. Les estimations des précipitations par satellite sont moins précises la nuit que le jour.

© 2024 meteoblue, NOAA Satellites GOES-16 and EUMETSAT. Données de foudre fournies par nowcast.

Retour vers le haut
×
Salut,
Il semble que vous utilisiez un logiciel antipub.

La publicité est essentielle pour maintenir notre site web gratuit avec des détails et précision uniques.

Veuillez mettre www.meteoblue.com sur la liste blanche de votre bloqueur de publicité ou envisager d'acheter l'un de nos produits :

Vous avez déjà un abonnement ?
Dans ce cas, veuillez vous connecter.